Teterboro, NJ

3:02 AM EST on November 13, 2019 (GMT -0500)
Teterboro

Weather History for KTEB - September, 2019

Change the Weather History Date:

Saturday, September 14, 2019

  Actual Average Record
Temperature  
Mean Temperature 68 °F -  
Max Temperature 79 °F 76 °F 95 °F (2008)
Min Temperature 62 °F 57 °F 33 °F (1996)
Cooling Degree Days 4    
Growing Degree Days 18 (Base 50)    
Moisture  
Dew Point 61 °F    
Average Humidity 73    
Maximum Humidity 84    
Minimum Humidity 63    
Precipitation  
Precipitation 0.00 in - - ()
Sea Level Pressure  
Sea Level Pressure 30.24 in    
Wind  
Wind Speed 5 mph ()    
Max Wind Speed 13 mph    
Max Gust Speed 20 mph    
Visibility 9.9 miles    
Events Rain    
Averages and records for this station are not official NWS values.
T = Trace of Precipitation, MM = Missing Value Source: Averaged Metar Reports

Daily Weather History Graph

Daily Weather History Graph

Search for Another Location

Airport or City:

Astronomy

Sep. 14, 2019 Rise Set
Actual Time 6:35 AM EDT 7:07 PM EDT
Civil Twilight 6:08 AM EDT 7:34 PM EDT
Nautical Twilight 5:35 AM EDT 8:07 PM EDT
Astronomical Twilight 5:02 AM EDT 8:40 PM EDT
Moon 7:47 PM EDT (9/14) 6:46 AM EDT (9/14)
Length of Visible Light 13h 26m
Length of Day
12h 31m
Full, 100% of the Moon is Illuminated
Sep 14
Full
Sep 21
Last Quarter
Sep 28
New
Oct 5
First Quarter
Oct 13
Full

Hourly Weather History & Observations

Time (EDT) Temp. Dew Point Humidity Pressure Visibility Wind Dir Wind Speed Gust Speed Precip Events Conditions
1:51 AM 63.0 °F 51.1 °F 65% 30.38 in 10.0 mi ESE 3.5 mph - N/A   Mostly Cloudy
2:51 AM 62.1 °F 52.0 °F 70% 30.35 in 10.0 mi ESE 4.6 mph - N/A   Scattered Clouds
3:51 AM 63.0 °F 53.1 °F 70% 30.34 in 10.0 mi East 3.5 mph - N/A   Overcast
4:51 AM 64.0 °F 55.0 °F 73% 30.32 in 10.0 mi East 4.6 mph - N/A   Overcast
5:51 AM 64.0 °F 55.0 °F 73% 30.33 in 10.0 mi North 3.5 mph - N/A   Overcast
6:51 AM 64.9 °F 55.9 °F 73% 30.32 in 10.0 mi Calm Calm - N/A   Overcast
7:51 AM 68.0 °F 57.0 °F 68% 30.32 in 10.0 mi Calm Calm - N/A   Overcast
8:51 AM 69.1 °F 57.9 °F 68% 30.31 in 10.0 mi North - - N/A   Mostly Cloudy
9:51 AM 71.1 °F 57.9 °F 63% 30.31 in 10.0 mi South 11.5 mph - N/A   Overcast
10:51 AM 72.0 °F 59.0 °F 64% 30.29 in 10.0 mi South 11.5 mph - N/A   Overcast
11:51 AM 73.0 °F 60.1 °F 64% 30.27 in 10.0 mi South 11.5 mph - N/A   Overcast
12:51 PM 73.0 °F 61.0 °F 66% 30.26 in 10.0 mi South 11.5 mph - N/A   Overcast
1:51 PM 73.9 °F 63.0 °F 68% 30.22 in 10.0 mi South 9.2 mph 19.6 mph N/A   Overcast
2:51 PM 75.0 °F 63.0 °F 66% 30.20 in 10.0 mi South 12.7 mph - N/A   Overcast
3:51 PM 73.9 °F 64.0 °F 71% 30.17 in 10.0 mi South 11.5 mph - N/A   Overcast
4:51 PM 73.9 °F 64.0 °F 71% 30.17 in 10.0 mi South 10.4 mph - N/A   Overcast
5:51 PM 73.9 °F 64.9 °F 73% 30.15 in 10.0 mi South 9.2 mph - N/A   Overcast
6:51 PM 73.9 °F 66.0 °F 76% 30.15 in 10.0 mi South 6.9 mph - N/A   Overcast
7:51 PM 73.9 °F 66.0 °F 76% 30.16 in 10.0 mi South 5.8 mph - 0.00 in   Overcast
8:51 PM 73.0 °F 66.9 °F 81% 30.17 in 10.0 mi Calm Calm - 0.00 in   Overcast
9:51 PM 73.0 °F 66.9 °F 81% 30.17 in 10.0 mi Calm Calm - N/A   Overcast
10:51 PM 72.0 °F 66.0 °F 81% 30.17 in 10.0 mi NNW 3.5 mph - N/A   Overcast
10:58 PM 72.0 °F 66.9 °F 84% 30.17 in 7.0 mi NNW 3.5 mph - 0.00 in Rain Light Rain
11:34 PM 72.0 °F 66.9 °F 84% 30.16 in 10.0 mi Calm Calm - 0.00 in   Light Drizzle
11:51 PM 72.0 °F 66.9 °F 84% 30.15 in 10.0 mi Calm Calm - 0.00 in   Light Drizzle